• In Hungary
  • List of Countries
  • For 7 days
  • Water Temperature
  • Satellite Maps
  • Weather Map
  • News
  • Weather Widgets
  • user-avatar
    Login

    Hourly Weather Poronin

    Today, 16 October, Tuesday

    Time Temperature Precipitation Wind Pressure Humidity
    00:00 +9°C° 0 mm 1 mps 702 mmHg 54%
    01:00 +10°C° 0 mm 1 mps 702 mmHg 51%
    02:00 +10°C° 0 mm 1 mps 702 mmHg 50%
    03:00 +10°C° 0 mm 1 mps 702 mmHg 49%
    04:00 +10°C° 0 mm 1 mps 702 mmHg 49%
    05:00 +10°C° 0 mm 1 mps 702 mmHg 50%
    06:00 +10°C° 0 mm 1 mps 702 mmHg 52%
    07:00 +10°C° 0 mm 1 mps 702 mmHg 53%
    08:00 +12°C° 0 mm 1 mps 703 mmHg 48%
    09:00 +15°C° 0 mm 1 mps 703 mmHg 43%
    10:00 +18°C° 0 mm 1 mps 704 mmHg 38%
    11:00 +18°C° 0 mm 2 mps 704 mmHg 37%
    12:00 +19°C° 0 mm 2 mps 704 mmHg 36%
    13:00 +19°C° 0 mm 2 mps 704 mmHg 34%
    14:00 +19°C° 0 mm 1 mps 703 mmHg 39%
    15:00 +18°C° 0 mm 1 mps 703 mmHg 45%
    16:00 +16°C° 0 mm 1 mps 703 mmHg 50%
    17:00 +14°C° 0 mm 1 mps 702 mmHg 53%
    18:00 +13°C° 0 mm 1 mps 702 mmHg 56%
    19:00 +11°C° 0 mm 1 mps 702 mmHg 59%
    20:00 +11°C° 0 mm 1 mps 702 mmHg 59%
    21:00 +11°C° 0 mm 1 mps 702 mmHg 59%
    22:00 +10°C° 0 mm 1 mps 702 mmHg 59%
    23:00 +10°C° 0 mm 1 mps 702 mmHg 59%

    Tomorrow, 17 October, Wednesday

    Time Temperature Precipitation Wind Pressure Humidity
    00:00 +10°C° 0 mm 1 mps 702 mmHg 58%
    01:00 +10°C° 0 mm 1 mps 702 mmHg 58%
    02:00 +10°C° 0 mm 1 mps 702 mmHg 58%
    03:00 +10°C° 0 mm 1 mps 702 mmHg 59%
    04:00 +10°C° 0 mm 1 mps 702 mmHg 60%
    05:00 +10°C° 0 mm 1 mps 702 mmHg 60%
    06:00 +11°C° 0 mm 1 mps 702 mmHg 61%
    07:00 +11°C° 0 mm 1 mps 702 mmHg 61%
    08:00 +13°C° 0 mm 1 mps 703 mmHg 55%
    09:00 +16°C° 0 mm 1 mps 703 mmHg 49%
    10:00 +19°C° 0 mm 1 mps 703 mmHg 43%
    11:00 +20°C° 0 mm 1 mps 703 mmHg 41%
    12:00 +20°C° 0 mm 1 mps 703 mmHg 40%
    13:00 +21°C° 0 mm 1 mps 703 mmHg 38%
    14:00 +20°C° 0 mm 1 mps 702 mmHg 43%
    15:00 +18°C° 0 mm 1 mps 702 mmHg 48%
    16:00 +16°C° 0 mm 1 mps 702 mmHg 53%
    17:00 +15°C° 0 mm 1 mps 701 mmHg 56%
    18:00 +13°C° 0 mm 1 mps 701 mmHg 60%
    19:00 +12°C° 0 mm 1 mps 701 mmHg 63%
    20:00 +12°C° 0 mm 1 mps 701 mmHg 63%
    21:00 +12°C° 0 mm 1 mps 701 mmHg 63%
    22:00 +12°C° 0 mm 1 mps 701 mmHg 62%
    23:00 +12°C° 0 mm 1 mps 701 mmHg 62%

    Day after tomorrow, 18 October, Thursday

    Time Temperature Precipitation Wind Pressure Humidity
    00:00 +11°C° 0 mm 0 mps 701 mmHg 61%
    01:00 +11°C° 0 mm 0 mps 701 mmHg 60%
    02:00 +10°C° 0 mm 0 mps 700 mmHg 60%
    03:00 +10°C° 0 mm 0 mps 700 mmHg 60%
    04:00 +10°C° 0 mm 0 mps 700 mmHg 60%
    05:00 +10°C° 0 mm 0 mps 700 mmHg 60%
    06:00 +11°C° 0 mm 0 mps 700 mmHg 61%
    07:00 +11°C° 0 mm 0 mps 700 mmHg 61%
    08:00 +12°C° 0 mm 0 mps 701 mmHg 58%
    09:00 +14°C° 0 mm 0 mps 701 mmHg 54%
    10:00 +16°C° 0 mm 1 mps 701 mmHg 50%
    11:00 +16°C° 0 mm 1 mps 701 mmHg 50%
    12:00 +18°C° 0 mm 1 mps 701 mmHg 50%
    13:00 +18°C° 0 mm 1 mps 701 mmHg 49%
    14:00 +16°C° 0 mm 1 mps 701 mmHg 54%
    15:00 +15°C° 0 mm 1 mps 701 mmHg 59%
    16:00 +14°C° 0 mm 1 mps 700 mmHg 64%
    17:00 +14°C° 0 mm 1 mps 700 mmHg 67%
    18:00 +12°C° 0 mm 0 mps 700 mmHg 69%
    19:00 +11°C° 0 mm 0 mps 701 mmHg 72%
    20:00 +11°C° 0 mm 0 mps 701 mmHg 73%
    21:00 +11°C° 0 mm 0 mps 701 mmHg 75%
    22:00 +10°C° 0 mm 0 mps 701 mmHg 76%
    23:00 +10°C° 0 mm 0 mps 701 mmHg 77%

    19 October, Friday

    Time Temperature Precipitation Wind Pressure Humidity
    00:00 +10°C° 0 mm 0 mps 701 mmHg 78%
    01:00 +9°C° 0 mm 0 mps 701 mmHg 80%
    02:00 +10°C° 0 mm 1 mps 700 mmHg 80%
    03:00 +10°C° 0 mm 1 mps 700 mmHg 80%
    04:00 +10°C° 0 mm 1 mps 700 mmHg 80%
    05:00 +10°C° 0 mm 1 mps 701 mmHg 80%
    06:00 +10°C° 0 mm 1 mps 701 mmHg 79%
    07:00 +10°C° 0 mm 1 mps 701 mmHg 79%
    08:00 +12°C° 0 mm 1 mps 701 mmHg 73%
    09:00 +13°C° 0 mm 1 mps 702 mmHg 67%
    10:00 +15°C° 0 mm 2 mps 702 mmHg 61%
    11:00 +15°C° 0.1 mm 2 mps 702 mmHg 60%
    12:00 +15°C° 0.1 mm 2 mps 702 mmHg 60%
    13:00 +16°C° 0.1 mm 2 mps 702 mmHg 60%
    14:00 +15°C° 0.1 mm 2 mps 701 mmHg 65%
    15:00 +14°C° 0.1 mm 2 mps 701 mmHg 69%
    16:00 +13°C° 0.1 mm 2 mps 701 mmHg 74%
    17:00 +12°C° 0.1 mm 2 mps 701 mmHg 80%
    18:00 +11°C° 0.1 mm 1 mps 701 mmHg 86%
    19:00 +10°C° 0.1 mm 1 mps 701 mmHg 91%
    20:00 +10°C° 0 mm 1 mps 701 mmHg 92%
    21:00 +10°C° 0 mm 1 mps 702 mmHg 93%
    22:00 +10°C° 0 mm 1 mps 702 mmHg 94%
    23:00 +9°C° 0 mm 1 mps 702 mmHg 94%

    20 October, Saturday

    Time Temperature Precipitation Wind Pressure Humidity
    00:00 +9°C° 0 mm 1 mps 702 mmHg 94%
    01:00 +9°C° 0 mm 1 mps 702 mmHg 94%
    02:00 +9°C° 0 mm 1 mps 702 mmHg 94%
    03:00 +9°C° 0 mm 1 mps 702 mmHg 94%
    04:00 +9°C° 0 mm 1 mps 702 mmHg 94%
    05:00 +9°C° 0 mm 1 mps 702 mmHg 94%
    06:00 +9°C° 0 mm 1 mps 702 mmHg 94%
    07:00 +8°C° 0 mm 1 mps 702 mmHg 94%
    08:00 +9°C° 0 mm 1 mps 702 mmHg 88%
    09:00 +10°C° 0 mm 1 mps 702 mmHg 82%
    10:00 +11°C° 0 mm 1 mps 703 mmHg 76%
    11:00 +12°C° 0 mm 2 mps 703 mmHg 72%
    12:00 +12°C° 0 mm 2 mps 702 mmHg 68%
    13:00 +12°C° 0 mm 2 mps 702 mmHg 64%
    14:00 +12°C° 0 mm 2 mps 702 mmHg 64%
    15:00 +10°C° 0 mm 2 mps 702 mmHg 65%
    16:00 +9°C° 0 mm 2 mps 702 mmHg 66%
    17:00 +8°C° 0 mm 2 mps 702 mmHg 70%
    18:00 +6°C° 0 mm 2 mps 701 mmHg 75%
    19:00 +6°C° 0 mm 1 mps 701 mmHg 79%
    20:00 +6°C° 0 mm 1 mps 702 mmHg 80%
    21:00 +5°C° 0 mm 1 mps 702 mmHg 81%
    22:00 +5°C° 0 mm 1 mps 702 mmHg 82%
    23:00 +4°C° 0 mm 1 mps 702 mmHg 85%

    21 October, Sunday

    Time Temperature Precipitation Wind Pressure Humidity
    00:00 +4°C° 0 mm 1 mps 701 mmHg 87%
    01:00 +2°C° 0 mm 2 mps 701 mmHg 89%
    02:00 +2°C° 0 mm 2 mps 701 mmHg 89%
    03:00 +2°C° 0 mm 2 mps 701 mmHg 88%
    04:00 +3°C° 0 mm 2 mps 701 mmHg 87%
    05:00 +3°C° 0.1 mm 2 mps 701 mmHg 87%
    06:00 +3°C° 0.1 mm 2 mps 701 mmHg 87%
    07:00 +4°C° 0.1 mm 1 mps 702 mmHg 87%
    08:00 +4°C° 0.3 mm 2 mps 702 mmHg 85%
    09:00 +4°C° 0.3 mm 2 mps 702 mmHg 82%
    10:00 +4°C° 0.3 mm 3 mps 702 mmHg 80%
    11:00 +4°C° 0.1 mm 3 mps 702 mmHg 78%
    12:00 +5°C° 0.1 mm 3 mps 702 mmHg 75%
    13:00 +5°C° 0.1 mm 3 mps 702 mmHg 72%
    14:00 +5°C° 0 mm 3 mps 701 mmHg 73%
    15:00 +4°C° 0 mm 3 mps 701 mmHg 75%
    16:00 +5°C° 0 mm 2 mps 701 mmHg 76%
    17:00 +4°C° 0 mm 2 mps 701 mmHg 80%
    18:00 +4°C° 0 mm 2 mps 701 mmHg 84%
    19:00 +3°C° 0 mm 2 mps 701 mmHg 89%
    20:00 +3°C° 0 mm 2 mps 702 mmHg 89%
    21:00 +3°C° 0 mm 1 mps 702 mmHg 90%
    22:00 +3°C° 0 mm 1 mps 702 mmHg 91%
    23:00 +3°C° 0 mm 1 mps 701 mmHg 91%
    Show more